Temperature
15 15 15 15 15 14 14 14 14 14 15 15 15 15 15 15 15 15 15 15 15 15 15 15 15 15 15 15 16 15 16 15 16 16 16 16 16 15 15 15 15 15 15
15 15 15 14 14 14 14 14 14 14 14 14 14 14 15 15 15 15 15 15 15 15 15 15 15 15 15 15 15 15 15 15 15 15 15 15 15 15 15 15 15 15 15
15 14 14 14 14 14 14 14 14 14 14 14 14 14 14 15 15 15 15 15 15 15 15 15 15 15 15 15 15 15 15 15 15 15 15 15 15 15 15 15 15 15 15
14 14 14 14 14 14 14 14 14 14 14 14 14 14 14 14 14 14 15 14 14 15 15 15 15 15 15 15 15 15 15 15 14 14 14 14 15 15 15 15 15 15 15
14 14 14 14 14 14 14 14 14 14 14 14 14 14 14 14 14 14 14 14 14 14 14 14 14 14 14 14 14 14 14 14 14 14 14 14 14 14 14 15 15 15 14
13 13 13 14 13 13 13 13 13 13 13 13 13 13 14 14 14 14 14 14 14 14 14 14 14 14 14 14 14 14 14 14 14 14 14 14 14 14 14 14 14 14 14
13 13 13 13 13 13 13 13 13 13 13 13 13 13 13 13 13 13 14 14 14 14 14 14 14 14 14 14 14 14 14 14 14 14 13 13 14 14 14 14 14 14 14
13 13 13 13 13 13 13 13 13 13 13 13 13 13 13 13 13 13 13 13 13 13 13 14 14 14 14 14 14 14 14 13 13 13 13 13 13 14 14 14 14 14 14
13 13 13 13 13 13 12 13 12 13 13 13 13 13 13 13 13 13 13 13 13 13 13 13 13 13 13 13 13 13 13 13 13 13 13 13 13 13 13 14 14 13 13
12 12 12 12 12 12 12 12 12 12 12 12 12 12 12 12 12 13 13 13 12 13 13 13 13 13 13 13 13 13 13 13 13 13 13 13 13 13 13 13 13 13 13
12 12 12 12 12 12 12 12 12 12 12 12 12 12 12 12 12 12 12 12 12 12 12 12 13 13 13 13 13 13 13 13 13 13 12 13 13 13 13 13 13 13 13
12 12 11 11 11 11 11 11 11 11 11 11 11 11 11 11 11 11 12 12 12 12 12 12 12 12 12 12 12 12 12 12 12 12 12 12 12 12 13 13 12 12 12
12 11 11 11 11 11 11 11 11 11 11 11 11 11 11 11 11 11 11 11 11 12 12 12 12 12 12 12 12 12 12 12 12 12 12 12 12 12 12 12 12 12 12
11 11 11 11 11 11 11 10 10 11 11 11 11 11 11 11 11 11 11 11 11 11 11 11 11 11 11 11 11 11 11 11 11 12 12 12 12 12 12 12 12 12 11
11 11 11 11 11 10 10 10 10 10 10 10 10 10 10 10 10 10 11 11 11 11 11 11 11 11 11 11 11 11 11 11 11 11 11 11 12 11 11 11 11 11 11
11 11 10 10 10 10 10 10 10 10 10 10 10 10 10 10 10 10 10 10 10 11 11 11 11 11 10 11 10 10 10 11 11 11 11 11 11 11 11 11 11 11 11
11 10 10 10 10 10 10 9 9 9 9 10 10 10 10 10 10 10 10 10 10 10 10 10 10 10 10 10 10 10 10 10 10 10 11 11 11 11 11 11 11 10 10
10 10 10 10 10 10 9 9 9 9 9 9 9 9 9 9 9 10 10 10 10 10 10 10 10 10 10 10 10 10 10 10 10 10 10 10 10 10 10 10 10 10 10
10 10 10 10 9 9 9 9 9 9 9 9 9 9 9 9 9 9 9 10 10 9 10 10 10 10 10 10 9 9 9 10 10 10 10 10 10 10 10 10 10 10 10
10 10 10 9 9 9 9 9 9 9 9 9 9 9 9 9 9 9 9 9 9 9 9 9 9 9 9 9 9 9 9 9 9 9 9 9 9 9 9 9 10 10 10
9 9 9 9 9 9 9 9 8 8 8 8 8 8 8 9 9 9 9 9 9 9 9 9 9 9 8 8 8 8 8 9 9 9 9 9 9 9 9 9 9 9 9
9 9 9 9 9 8 8 8 8 8 8 8 8 8 8 8 8 8 8 8 8 8 8 8 8 8 8 8 8 8 7 8 8 8 8 9 9 9 9 9 9 9 9
9 8 8 8 8 8 8 8 8 7 7 7 7 8 8 8 8 8 8 8 8 8 8 8 8 8 8 8 8 8 8 7 7 7 8 8 8 8 8 8 8 8 8
8 8 8 8 8 8 7 7 7 7 7 7 7 7 7 7 7 8 8 8 8 8 8 8 8 8 8 8 8 8 8 8 7 7 7 7 7 7 8 8 8 8 8
8 8 8 8 8 7 7 7 7 7 7 7 7 7 7 7 7 7 7 7 7 7 7 7 7 7 7 7 7 7 7 7 7 7 7 7 7 7 7 7 7 7 8
7 7 7 7 7 7 7 7 6 6 6 6 6 6 7 7 7 7 7 7 7 7 7 7 7 7 7 7 7 7 7 7 7 7 7 7 7 7 7 7 7 7 7
Wind_Speed
6 8 9 8 7 6 6 6 6 6 6 6 6 5 5 5 6 6 7 7 6 7 7 7 8 9 10 11 12 13 13 13 13 14 14 13 12 12 12 11 13 14 16
7 10 9 8 7 6 5 5 6 6 5 5 5 5 5 5 5 5 6 6 6 6 7 8 8 9 10 11 11 12 12 12 12 13 13 13 12 12 12 13 14 13 15
7 9 9 8 7 6 5 5 5 5 4 4 4 4 4 5 5 5 5 5 5 7 7 8 9 9 9 10 11 11 11 10 9 10 10 11 11 12 13 14 14 14 15
7 9 8 8 7 6 5 5 5 4 4 4 4 4 4 5 4 5 5 5 6 6 7 8 8 9 9 10 10 10 9 7 6 6 6 9 11 12 13 13 13 14 14
7 10 9 8 7 6 5 4 4 4 3 3 4 4 4 4 4 5 6 6 5 6 7 8 8 8 9 9 9 9 8 6 5 5 7 10 11 12 12 12 12 13 14
6 10 9 7 6 6 5 3 3 4 3 2 3 3 4 4 4 5 5 6 5 5 7 7 8 8 8 9 9 8 6 5 4 4 7 10 11 12 12 12 13 13 12
6 8 8 7 6 5 4 3 2 3 3 2 3 3 4 4 4 4 5 5 5 5 6 7 8 8 8 9 8 7 5 4 5 5 8 10 11 12 12 12 13 13 13
5 7 7 7 6 6 4 3 2 2 2 2 2 3 3 3 3 4 4 5 5 5 6 6 7 7 8 8 7 6 4 3 4 6 8 10 11 12 12 12 12 12 12
5 5 5 5 5 5 5 4 3 2 3 3 3 3 3 3 3 3 4 4 5 5 6 6 7 7 8 7 6 5 4 1 2 5 8 9 11 11 11 11 11 11 11
4 4 3 4 4 4 4 4 4 3 4 4 3 3 3 3 3 4 4 4 5 6 6 6 6 7 7 6 5 5 3 1 1 4 8 10 11 10 10 10 11 11 11
3 3 2 2 3 3 3 4 5 4 3 4 4 4 4 3 4 4 5 5 5 6 6 6 6 7 7 5 5 4 3 2 3 5 8 10 10 10 10 10 10 11 11
2 2 2 1 1 2 3 4 4 4 4 3 3 3 3 3 4 4 6 6 6 6 6 6 6 7 6 5 4 3 3 3 5 7 8 10 9 9 9 10 10 10 11
2 2 2 2 1 2 2 2 2 3 3 3 3 2 2 3 4 5 5 6 6 6 6 5 5 4 5 4 4 3 3 4 6 7 8 10 9 9 9 10 10 10 10
2 2 2 2 1 1 1 1 2 2 2 2 3 3 2 2 2 3 3 5 5 4 4 4 3 4 4 5 5 4 4 5 6 7 7 9 8 8 9 10 10 10 10
2 2 2 3 2 1 1 0 1 1 2 3 4 4 4 2 1 1 2 4 5 5 4 3 3 3 3 4 4 5 5 6 7 7 7 8 8 8 8 9 10 10 10
3 3 3 2 2 1 1 1 1 1 2 3 3 3 4 4 2 1 1 2 3 4 4 4 3 3 3 3 3 4 5 6 7 8 8 8 8 7 7 8 8 9 9
3 3 3 3 2 2 2 1 1 1 2 2 3 3 3 3 3 2 2 2 2 3 4 3 3 4 3 3 3 4 5 5 6 7 7 7 7 6 6 7 7 8 8
3 3 3 2 3 2 1 1 1 2 1 1 3 3 3 3 4 3 2 2 3 3 3 2 2 3 3 3 3 3 4 5 5 6 7 7 6 5 5 6 6 7 7
3 3 3 2 2 2 1 1 2 2 2 1 3 3 3 3 3 4 2 2 4 3 3 2 2 2 3 4 3 3 3 3 3 4 5 6 6 7 6 6 5 5 6
3 3 3 3 2 2 2 2 2 2 1 1 2 2 3 3 3 4 3 3 4 3 2 3 3 3 3 4 4 3 2 2 3 3 3 4 5 6 6 6 6 5 6
2 3 3 3 3 3 2 2 2 2 1 0 1 2 3 3 3 3 2 2 3 3 3 3 3 4 3 3 3 2 2 2 2 2 2 3 3 4 5 5 6 6 6
2 2 2 3 2 2 2 2 1 2 1 1 1 1 2 2 3 3 3 2 2 3 3 3 3 3 2 3 2 2 1 1 1 1 1 1 2 3 4 4 4 5 6
1 2 2 2 2 3 3 2 2 1 1 1 1 1 0 1 2 2 3 3 3 3 3 4 4 4 4 3 2 2 3 3 1 1 1 1 1 1 2 3 3 4 5
1 2 2 2 2 2 3 3 3 3 2 2 2 1 1 1 2 2 3 3 3 3 3 4 3 3 4 4 2 0 1 2 2 1 1 1 1 1 1 2 3 4 4
3 3 2 2 1 2 3 3 2 2 1 1 2 2 2 1 2 2 3 3 3 2 3 3 3 3 3 3 2 1 1 1 1 2 2 2 1 1 1 2 3 4 5
4 3 2 2 1 2 2 2 2 2 1 1 2 2 2 1 1 2 2 3 3 3 3 3 3 4 3 3 2 2 2 2 2 2 1 1 2 2 2 2 3 4 5
Wind_Direction
99 111 119 118 118 112 106 103 101 99 99 99 98 95 95 93 94 94 95 97 97 98 101 108 107 101 98 98 97 95 94 93 92 90 87 87 91 93 91 89 91 90 91
103 113 120 120 120 118 113 110 106 102 102 103 103 102 98 95 98 101 103 101 104 105 106 108 110 106 103 101 102 103 101 101 101 99 93 87 89 91 89 88 93 96 96
101 110 116 114 119 121 118 114 109 104 102 102 109 109 100 96 97 106 106 102 105 109 109 108 109 109 105 104 105 109 110 112 117 116 109 99 97 94 93 93 95 97 98
97 104 106 111 113 119 122 117 115 112 108 106 113 115 111 107 104 110 116 108 101 104 107 111 113 111 108 109 109 110 111 111 120 126 121 109 104 102 99 97 97 98 98
96 102 101 113 115 114 116 118 123 122 119 112 115 116 119 118 114 117 122 110 103 106 111 112 115 114 114 114 113 112 106 102 99 108 100 101 102 107 107 104 101 101 100
95 102 108 105 118 121 123 120 133 136 129 122 126 124 126 124 122 125 128 116 110 113 121 120 123 119 119 120 118 113 104 93 87 94 101 105 107 113 112 109 106 105 106
96 101 112 109 115 124 125 128 135 150 149 141 142 135 130 128 126 127 124 123 116 123 124 123 128 127 123 122 120 116 103 89 91 84 91 103 113 119 117 113 110 108 107
97 107 119 123 119 125 121 114 111 125 142 151 143 137 133 130 131 132 128 133 128 131 129 126 125 127 125 124 125 119 109 97 95 97 99 105 117 121 119 117 114 112 112
86 102 118 124 121 125 125 119 108 109 130 130 130 131 131 133 140 140 136 136 136 135 134 129 127 130 130 129 132 127 118 105 77 107 114 113 120 122 123 122 121 119 117
91 96 104 121 121 122 130 130 123 120 122 127 127 130 135 143 152 150 137 138 139 137 132 132 130 131 133 135 141 138 139 142 101 102 112 121 125 127 129 127 126 125 121
103 107 108 108 118 127 134 132 125 131 131 135 137 147 157 158 160 152 143 140 141 140 135 138 139 136 136 144 153 148 144 131 104 99 110 126 129 131 130 130 130 128 123
144 132 119 96 93 121 132 130 141 144 140 144 143 157 177 161 142 134 132 137 137 138 140 146 145 144 148 149 158 152 138 116 96 97 112 129 131 133 133 133 133 131 126
151 142 124 104 81 88 96 139 144 150 157 153 139 151 160 143 121 118 121 127 131 138 137 144 147 158 158 146 141 147 126 107 98 101 115 128 131 133 134 134 133 132 130
158 156 137 114 109 95 111 124 133 127 153 138 144 142 133 112 109 131 145 149 153 158 149 156 165 155 154 147 147 137 112 100 100 102 113 128 131 136 137 139 137 134 134
171 163 144 136 147 130 125 131 152 150 150 152 156 156 138 110 126 131 143 147 154 158 155 157 161 145 146 141 135 119 108 106 107 105 111 120 128 134 139 143 142 140 140
180 170 163 155 151 155 164 185 167 143 145 144 150 165 152 148 138 144 128 121 142 155 157 155 146 127 125 116 112 105 106 104 108 108 108 108 115 129 141 146 149 151 150
180 166 165 167 160 172 176 176 118 119 134 132 150 157 148 144 143 137 124 113 115 137 139 126 114 109 111 106 104 95 95 99 105 109 113 113 113 122 140 146 149 156 158
171 163 160 164 159 161 151 125 99 111 105 135 148 145 147 144 146 136 130 131 128 121 113 101 100 103 109 108 100 90 86 89 92 105 112 116 116 116 125 139 147 157 163
161 145 145 152 158 157 152 135 100 94 78 96 124 130 142 146 150 133 128 132 132 121 116 121 105 113 116 106 98 87 79 76 86 96 103 108 111 116 122 130 141 152 164
139 140 145 147 147 147 153 142 115 99 65 63 92 123 136 149 155 136 126 130 133 123 126 131 129 115 119 121 106 85 76 77 81 88 95 103 112 119 128 133 142 149 164
114 127 144 147 157 151 150 156 147 146 141 94 75 114 130 142 148 134 131 139 139 142 153 150 137 135 134 124 99 73 41 45 62 76 90 101 108 120 125 131 143 150 156
135 147 147 158 155 152 145 145 152 153 146 143 66 88 135 146 148 146 135 148 154 149 152 151 144 146 152 146 132 114 116 5 352 8 84 110 129 130 128 135 137 147 155
114 156 157 152 152 143 132 132 139 147 143 133 144 162 162 156 148 145 150 155 165 163 169 168 163 161 172 183 166 150 157 192 231 264 241 185 149 126 144 149 153 150 159
114 108 109 119 135 149 150 154 166 172 176 184 170 164 168 160 159 162 160 168 172 167 168 180 173 173 171 180 194 191 159 142 155 185 267 222 183 174 182 181 173 170 163
96 92 99 100 116 128 145 155 164 189 188 166 163 162 175 192 178 176 172 168 173 175 178 183 174 176 177 182 182 184 131 76 122 158 212 239 249 233 215 196 183 181 181
93 93 97 120 132 132 143 156 178 191 179 176 167 171 182 186 197 201 184 172 180 184 186 191 185 186 188 183 183 177 172 168 193 179 193 207 227 249 248 213 192 185 188
Height
1512 1512 1513 1513 1514 1515 1516 1517 1518 1519 1519 1520 1521 1522 1523 1525 1526 1527 1528 1529 1530 1532 1533 1534 1535 1536 1537 1538 1538 1539 1540 1541 1542 1543 1544 1544 1545 1546 1546 1547 1548 1549 1550
1512 1512 1512 1513 1514 1515 1516 1517 1518 1519 1520 1520 1521 1522 1524 1525 1526 1527 1528 1530 1531 1532 1533 1534 1535 1537 1537 1539 1539 1541 1542 1543 1544 1544 1545 1546 1546 1547 1548 1549 1550 1551 1551
1511 1511 1512 1513 1514 1515 1516 1517 1518 1519 1519 1520 1521 1522 1524 1525 1526 1527 1528 1530 1531 1532 1534 1535 1536 1537 1538 1539 1540 1542 1543 1544 1545 1546 1546 1547 1548 1549 1550 1551 1551 1552 1553
1511 1511 1511 1512 1513 1514 1515 1516 1517 1518 1519 1520 1521 1522 1523 1524 1526 1527 1528 1530 1531 1532 1534 1535 1536 1538 1539 1540 1541 1543 1544 1545 1546 1547 1548 1548 1549 1550 1551 1552 1553 1554 1554
1511 1510 1511 1512 1513 1514 1515 1516 1517 1518 1519 1520 1521 1522 1523 1524 1525 1527 1528 1530 1531 1532 1533 1535 1536 1538 1539 1540 1542 1543 1545 1546 1547 1548 1549 1550 1551 1552 1552 1553 1554 1555 1556
1511 1510 1511 1512 1512 1513 1514 1515 1516 1517 1518 1519 1521 1522 1523 1524 1525 1526 1528 1529 1530 1532 1533 1535 1536 1538 1539 1541 1542 1544 1545 1546 1548 1549 1550 1550 1551 1552 1553 1554 1555 1556 1557
1510 1510 1510 1511 1512 1513 1514 1514 1515 1517 1518 1519 1520 1521 1522 1523 1524 1526 1527 1528 1530 1532 1533 1534 1536 1538 1539 1541 1542 1544 1545 1547 1548 1549 1550 1551 1552 1553 1554 1555 1556 1556 1557
1510 1509 1510 1510 1511 1512 1513 1514 1515 1516 1517 1518 1519 1520 1521 1523 1524 1525 1526 1528 1529 1531 1533 1534 1535 1537 1539 1540 1542 1544 1545 1547 1548 1549 1550 1551 1552 1553 1554 1555 1556 1557 1558
1509 1509 1509 1509 1510 1511 1511 1512 1513 1515 1516 1517 1518 1519 1521 1522 1523 1524 1525 1527 1529 1530 1532 1533 1535 1536 1538 1540 1541 1543 1545 1546 1548 1549 1550 1551 1552 1553 1554 1555 1556 1557 1558
1508 1508 1508 1508 1509 1509 1510 1511 1513 1514 1515 1516 1517 1518 1520 1521 1522 1523 1525 1526 1528 1529 1531 1532 1534 1536 1537 1539 1541 1542 1544 1546 1547 1548 1550 1551 1552 1553 1554 1555 1556 1557 1558
1507 1507 1507 1507 1508 1508 1509 1510 1511 1512 1513 1515 1516 1517 1518 1519 1521 1522 1523 1525 1527 1528 1530 1532 1533 1535 1537 1538 1540 1542 1543 1545 1546 1548 1549 1550 1552 1553 1554 1555 1556 1557 1558
1505 1506 1506 1506 1506 1507 1508 1508 1509 1511 1512 1513 1514 1515 1517 1518 1519 1521 1522 1524 1525 1527 1529 1531 1532 1534 1536 1537 1539 1541 1542 1544 1545 1547 1548 1550 1551 1552 1553 1554 1556 1557 1558
1504 1504 1504 1505 1505 1505 1506 1507 1508 1509 1510 1511 1513 1514 1515 1517 1518 1519 1521 1522 1524 1526 1527 1529 1531 1533 1535 1536 1538 1540 1541 1543 1544 1545 1547 1549 1550 1551 1552 1554 1555 1556 1557
1502 1502 1503 1503 1503 1504 1505 1505 1506 1507 1508 1509 1511 1512 1514 1515 1516 1518 1519 1521 1522 1524 1526 1528 1529 1531 1533 1535 1537 1539 1540 1542 1543 1544 1546 1547 1549 1550 1552 1553 1554 1555 1557
1499 1500 1500 1501 1501 1502 1503 1504 1505 1505 1506 1507 1509 1511 1512 1513 1515 1516 1518 1519 1521 1523 1524 1526 1528 1530 1532 1534 1535 1537 1539 1540 1542 1543 1545 1546 1548 1549 1551 1552 1553 1554 1556
1497 1497 1498 1498 1499 1500 1500 1502 1503 1504 1505 1506 1507 1509 1510 1511 1513 1514 1516 1517 1519 1521 1523 1524 1526 1528 1530 1532 1534 1536 1537 1539 1541 1542 1543 1545 1547 1548 1550 1551 1552 1553 1554
1494 1494 1495 1496 1497 1497 1498 1499 1500 1501 1503 1504 1505 1507 1508 1510 1511 1512 1514 1516 1517 1519 1521 1523 1525 1527 1529 1531 1532 1534 1536 1538 1539 1540 1542 1543 1545 1547 1548 1549 1550 1552 1553
1491 1492 1493 1493 1494 1495 1496 1497 1498 1499 1501 1502 1503 1505 1506 1508 1509 1510 1512 1513 1515 1517 1519 1521 1523 1525 1526 1528 1530 1532 1534 1536 1538 1539 1540 1542 1543 1545 1546 1548 1549 1550 1551
1489 1490 1490 1491 1492 1493 1494 1495 1496 1497 1499 1500 1501 1503 1504 1506 1507 1508 1510 1512 1513 1515 1517 1519 1521 1523 1524 1526 1528 1530 1532 1534 1536 1537 1539 1540 1541 1542 1544 1546 1547 1548 1549
1486 1487 1488 1489 1490 1490 1491 1493 1494 1495 1497 1498 1499 1500 1502 1503 1505 1506 1508 1510 1511 1513 1515 1517 1519 1521 1523 1525 1527 1529 1530 1532 1534 1535 1537 1538 1539 1540 1542 1543 1545 1546 1547
1484 1485 1486 1486 1487 1488 1489 1490 1491 1492 1494 1496 1497 1498 1500 1501 1503 1504 1505 1507 1509 1511 1513 1515 1517 1519 1521 1523 1525 1526 1528 1530 1531 1533 1535 1536 1537 1538 1539 1540 1541 1543 1544
1481 1482 1483 1484 1485 1486 1487 1488 1490 1491 1492 1494 1495 1496 1498 1499 1500 1501 1503 1505 1507 1509 1511 1512 1515 1516 1518 1520 1522 1524 1525 1528 1528 1530 1532 1533 1534 1536 1536 1537 1538 1540 1541
1479 1480 1481 1482 1482 1483 1484 1486 1487 1489 1490 1492 1493 1494 1495 1497 1498 1499 1501 1503 1504 1506 1508 1509 1511 1513 1515 1518 1520 1522 1523 1523 1525 1527 1528 1530 1531 1532 1533 1535 1535 1536 1538
1477 1478 1478 1479 1480 1481 1482 1483 1485 1486 1487 1488 1490 1491 1493 1494 1496 1497 1498 1500 1502 1503 1505 1507 1509 1511 1513 1514 1517 1519 1520 1521 1523 1523 1525 1526 1528 1529 1530 1531 1532 1533 1534
1475 1476 1476 1477 1478 1479 1480 1481 1482 1484 1485 1487 1488 1489 1490 1491 1493 1494 1496 1497 1499 1500 1502 1504 1505 1507 1509 1511 1513 1515 1516 1518 1519 1520 1521 1523 1524 1526 1527 1528 1529 1530 1531
1473 1474 1475 1475 1476 1477 1478 1479 1480 1482 1483 1484 1485 1486 1487 1488 1490 1491 1492 1494 1495 1497 1499 1501 1502 1504 1506 1508 1509 1511 1513 1514 1516 1517 1518 1519 1520 1522 1523 1524 1526 1527 1528